This is the latest recevied weather packets stored in our database for station/object JS2WAD-13. If no packets are shown the sender has not sent any weather packets the latest 10 day(s).
| Time | Temp. | Humidity | Pressure | Rain* | Wind** | Luminosity | Snow |
|---|---|---|---|---|---|---|---|
| 1778120478 | 24.44° C | 55% | 903.9 hPa | 0 mm | - | 130 W/m² | - |
| 1778120178 | 24.44° C | 56% | 904.1 hPa | 0 mm | - | 141 W/m² | - |
| 1778119878 | 24.44° C | 57% | 903.7 hPa | 0 mm | - | 919 W/m² | - |
| 1778119578 | 23.89° C | 58% | 904.2 hPa | 0 mm | - | 828 W/m² | - |
| 1778119278 | 23.89° C | 61% | 904.2 hPa | 0 mm | - | 816 W/m² | - |
| 1778118978 | 23.33° C | 60% | 903.9 hPa | 0 mm | - | 274 W/m² | - |
| 1778118678 | 23.33° C | 61% | 903.8 hPa | 0 mm | - | 223 W/m² | - |
| 1778118378 | 23.33° C | 61% | 903.8 hPa | 0 mm | - | 775 W/m² | - |
| 1778118078 | 23.33° C | 63% | 903.8 hPa | 0 mm | - | 719 W/m² | - |
| 1778117778 | 22.78° C | 63% | 903.9 hPa | 0 mm | - | 181 W/m² | - |
| 1778117478 | 22.78° C | 64% | 904 hPa | 0 mm | - | 135 W/m² | - |
| 1778117178 | 22.22° C | 64% | 903.9 hPa | 0 mm | - | 135 W/m² | - |
| 1778116878 | 22.22° C | 65% | 904 hPa | 0 mm | - | 77 W/m² | - |
| 1778116578 | 21.67° C | 67% | 904.2 hPa | 0 mm | - | 86 W/m² | - |
| 1778116278 | 21.67° C | 67% | 904.1 hPa | 0 mm | - | 100 W/m² | - |
| 1778115978 | 21.67° C | 67% | 904.2 hPa | 0 mm | - | 97 W/m² | - |
| 1778115678 | 21.67° C | 68% | 904.2 hPa | 0 mm | - | 72 W/m² | - |
| 1778115378 | 21.67° C | 68% | 904.2 hPa | 0 mm | - | 44 W/m² | - |
| 1778115078 | 21.11° C | 68% | 904.3 hPa | 0 mm | - | 49 W/m² | - |
| 1778114778 | 21.11° C | 70% | 904.2 hPa | 0 mm | - | 40 W/m² | - |
| 1778114478 | 21.11° C | 72% | 904.3 hPa | 0 mm | - | 54 W/m² | - |
| 1778114178 | 21.11° C | 70% | 904.4 hPa | 0 mm | - | 65 W/m² | - |
| 1778113878 | 20.56° C | 71% | 904.3 hPa | 0 mm | - | 69 W/m² | - |
| 1778113578 | 20.56° C | 77% | 904.9 hPa | 0 mm | - | 53 W/m² | - |
| 1778113278 | 20.56° C | 72% | 904.8 hPa | 0 mm | - | 39 W/m² | - |
* Rain latest hour (hover to see other rain measurements)
** Current wind speed in m/s (hover to see current wind gust speed)